{"data":{"norad_id":39070,"epoch":"2026-05-25T02:35:22.680096Z","epoch_age_seconds":65967,"freshness":"FRESH","line1":"1 39070U 13004A   26145.10790139  .00000077  00000+0  00000+0 0  9997","line2":"2 39070   3.4873  30.8668 0005179  16.1311  60.1512  1.00274622 46461","mean_motion":1.00274622,"eccentricity":0.0005179,"inclination_deg":3.4873,"raan_deg":30.8668,"arg_perigee_deg":16.1311,"mean_anomaly_deg":60.1512,"bstar":0,"rev_number":4646,"period_min":1436.0562735405,"perigee_km":35763.962963056,"apogee_km":35807.636368655,"semimajor_km":42163.936665856,"source":"CELESTRAK","updated_at":"2026-05-25T13:38:13.940626Z"}}